Dubai, UAE

4:47 PM +04 on January 19, 2018 (GMT +0400)
Dubai

Weather History for 41194 - September, 2013

Change the Weather History Date:

Tuesday, September 17, 2013

  Actual Average Record
Temperature  
Mean Temperature 92 °F -  
Max Temperature 101 °F 96 °F - ()
Min Temperature 84 °F 78 °F - ()
Cooling Degree Days 28    
Growing Degree Days 42 (Base 50)    
Moisture  
Dew Point 79 °F    
Average Humidity 67    
Maximum Humidity 84    
Minimum Humidity 47    
Precipitation  
Precipitation 0.00 in 0.00 in - ()
Sea Level Pressure  
Sea Level Pressure 29.60 in    
Wind  
Wind Speed 6 mph ()    
Max Wind Speed 14 mph    
Max Gust Speed -    
Visibility 4.8 miles    
Events      
T = Trace of Precipitation, MM = Missing Value Source: Averaged Metar Reports

Daily Weather History Graph

Daily Weather History Graph

Search for Another Location

Airport or City:

Trip Planner

Search our weather history database for the weather conditions in past years. The results will help you decide how hot, cold, wet, or windy it might be!

Date:

Astronomy

Sep. 17, 2013 Rise Set
Actual Time 6:05 AM +04 6:20 PM +04
Civil Twilight 5:42 AM +04 6:43 PM +04
Nautical Twilight 5:15 AM +04 7:10 PM +04
Astronomical Twilight 4:48 AM +04 7:37 PM +04
Moon 4:45 PM +04 (9/17) 3:43 AM +04 (9/17)
Length of Visible Light 13h 01m
Length of Day
12h 15m
Waxing Gibbous, 94% of the Moon is Illuminated
Sep 17
Waxing Gibbous
Sep 19
Full
Sep 27
Last Quarter
Oct 5
New
Oct 12
First Quarter

Hourly Weather History & Observations

Time (+04) Temp. Heat Index Dew Point Humidity Pressure Visibility Wind Dir Wind Speed Gust Speed Precip Events Conditions
12:00 AM 89.6 °F 108.2 °F 80.6 °F 75% 29.59 in - SW 5.8 mph - N/A   Clear
1:00 AM 89 °F - 80 °F 69% 29.61 in 6 mi SSW 5.8 mph - -  
1:00 AM 89.6 °F 108.2 °F 80.6 °F 75% 29.59 in - SSW 5.8 mph - N/A   Clear
2:00 AM 87.8 °F 104.9 °F 80.6 °F 79% 29.59 in - SSW 6.9 mph - N/A   Clear
3:00 AM 86.0 °F 99.3 °F 78.8 °F 79% 29.56 in - South 5.8 mph - N/A   Clear
4:00 AM 87.8 °F 102.5 °F 78.8 °F 75% 29.59 in 6.2 mi SSE 4.6 mph - N/A   Partly Cloudy
5:00 AM 86.0 °F 99.3 °F 78.8 °F 79% 29.59 in 5.6 mi South 3.5 mph - N/A   Partly Cloudy
6:00 AM 86.0 °F 99.3 °F 78.8 °F 79% 29.59 in 5.6 mi SSE 5.8 mph - N/A   Scattered Clouds
6:37 AM 84.2 °F 94.1 °F 77.0 °F 79% 29.59 in 2.5 mi South 6.9 mph - N/A   Haze
7:00 AM 84.2 °F 96.1 °F 78.8 °F 84% 29.59 in 2.5 mi South 5.8 mph - N/A   Haze
7:15 AM 86.0 °F 96.9 °F 77.0 °F 74% 29.62 in 3.1 mi South 5.8 mph - N/A   Haze
8:00 AM 86.0 °F 96.9 °F 77.0 °F 74% 29.62 in 3.1 mi South 4.6 mph - N/A   Haze
9:00 AM 89.6 °F 99.8 °F 75.2 °F 62% 29.65 in 5.0 mi SSW 5.8 mph - N/A   Unknown
10:00 AM 94 °F - 76 °F 47% 29.66 in 6 mi SW 6.9 mph - -  
10:00 AM 93.2 °F 105.0 °F 75.2 °F 56% 29.65 in - SW 6.9 mph - N/A   Clear
11:00 AM 96.8 °F 114.8 °F 78.8 °F 56% 29.65 in - Variable 2.3 mph - N/A   Clear
12:00 PM 98.6 °F 114.4 °F 77.0 °F 50% 29.62 in - West 5.8 mph - N/A   Clear
1:00 PM 100.4 °F 116.5 °F 77.0 °F 47% 29.59 in - NNW 6.9 mph - N/A   Clear
2:00 PM 96.8 °F 112.2 °F 77.0 °F 53% 29.59 in - NW 13.8 mph - N/A   Clear
3:00 PM 98.6 °F 114.4 °F 77.0 °F 50% 29.56 in - NW 11.5 mph - N/A   Clear
4:00 PM 96.8 °F 118.6 °F 80.6 °F 60% 29.56 in - NNW 11.5 mph - N/A   Clear
5:00 PM 95.0 °F 112.2 °F 78.8 °F 59% 29.56 in - NW 9.2 mph - N/A   Clear
6:00 PM 93.2 °F 113.6 °F 80.6 °F 67% 29.56 in - NW 9.2 mph - N/A   Clear
7:00 PM 93 °F - 80 °F 59% 29.59 in 6 mi NW 6.9 mph - -  
7:00 PM 93.2 °F 113.6 °F 80.6 °F 67% 29.56 in - NW 6.9 mph - N/A   Clear
8:00 PM 91.4 °F 107.2 °F 78.8 °F 66% 29.59 in - NNW 5.8 mph - N/A   Clear
9:00 PM 91.4 °F 111.0 °F 80.6 °F 71% 29.59 in - NNW 6.9 mph - N/A   Clear
10:00 PM 90 °F - 80 °F 66% 29.62 in 6 mi 1.2 mph - -  
10:00 PM 91.4 °F 111.0 °F 80.6 °F 71% 29.62 in - Variable 1.2 mph - N/A   Clear
11:00 PM 91.4 °F 111.0 °F 80.6 °F 71% 29.62 in - South 3.5 mph - N/A   Clear